TVF75VQ LFBZ-LFPO

Flight info

Callsign TVF75VQ
Flight time 1h 16m
Altitude 36000
Route VAVIX DCT TUDRA/N0394F280 DCT BEVOL UT158 AMB
Aircraft A320/M-SDE3FGHIRWY/LB1

Departure

Time 2026-04-25 18:07
Airport Biarritz Pays Basque airport (LFBZ)

Arrival

Time 2026-04-25 19:23
Airport Paris-Orly Airport (LFPO)
Time Latitude Longitude Altitude Speed Heading
2026-04-25 17:36 43.47122 -1.53091 250 ft 0 kts 20°
2026-04-25 17:56 43.47109 -1.53097 250 ft 4 kts 19°
2026-04-25 17:56 43.47083 -1.53108 250 ft 4 kts 17°
2026-04-25 17:56 43.47064 -1.53123 250 ft 4 kts 37°
2026-04-25 17:56 43.47047 -1.53149 250 ft 5 kts 70°
2026-04-25 17:57 43.47044 -1.53160 250 ft 1 kts 78°
2026-04-25 17:59 43.47045 -1.53154 250 ft 2 kts 78°
2026-04-25 18:00 43.47050 -1.53123 250 ft 5 kts 78°
2026-04-25 18:00 43.47058 -1.53068 250 ft 7 kts 81°
2026-04-25 18:00 43.47053 -1.52988 250 ft 10 kts 99°
2026-04-25 18:00 43.47031 -1.52890 250 ft 12 kts 140°
2026-04-25 18:01 43.46991 -1.52779 250 ft 15 kts 88°
2026-04-25 18:01 43.46996 -1.52628 250 ft 17 kts 90°
2026-04-25 18:01 43.46995 -1.52456 250 ft 19 kts 90°
2026-04-25 18:01 43.46997 -1.52338 248 ft 7 kts 88°
2026-04-25 18:02 43.46999 -1.52261 248 ft 9 kts 92°
2026-04-25 18:02 43.46962 -1.52185 245 ft 11 kts 155°
2026-04-25 18:02 43.46882 -1.52164 244 ft 13 kts 165°
2026-04-25 18:02 43.46839 -1.52054 245 ft 15 kts 86°
2026-04-25 18:03 43.46845 -1.51896 244 ft 17 kts 87°
2026-04-25 18:03 43.46850 -1.51722 241 ft 19 kts 89°
2026-04-25 18:03 43.46852 -1.51532 241 ft 21 kts 89°
2026-04-25 18:03 43.46855 -1.51318 240 ft 23 kts 89°
2026-04-25 18:04 43.46857 -1.51121 240 ft 7 kts 89°
2026-04-25 18:04 43.46869 -1.51035 242 ft 11 kts 60°
2026-04-25 18:04 43.46847 -1.50987 242 ft 14 kts 243°
2026-04-25 18:04 43.46845 -1.51047 241 ft 0 kts 267°
2026-04-25 18:07 43.46842 -1.51181 240 ft 47 kts 268°
2026-04-25 18:07 43.46831 -1.52007 245 ft 119 kts 270°
2026-04-25 18:07 43.46807 -1.53371 449 ft 147 kts 268°
2026-04-25 18:07 43.46764 -1.54807 918 ft 154 kts 268°
2026-04-25 18:08 43.46718 -1.56345 1276 ft 169 kts 268°
2026-04-25 18:08 43.46684 -1.58022 1820 ft 179 kts 272°
2026-04-25 18:08 43.46799 -1.59777 2457 ft 191 kts 277°
2026-04-25 18:08 43.47034 -1.61674 3073 ft 211 kts 295°
2026-04-25 18:09 43.48071 -1.63098 3806 ft 218 kts 338°
2026-04-25 18:09 43.49600 -1.63399 4443 ft 234 kts 13°
2026-04-25 18:09 43.51083 -1.62378 5044 ft 249 kts 45°
2026-04-25 18:09 43.51487 -1.61830 5283 ft 254 kts 49°
2026-04-25 18:10 43.53844 -1.59264 6759 ft 273 kts 19°
2026-04-25 18:10 43.55755 -1.59027 7756 ft 280 kts
2026-04-25 18:10 43.57697 -1.58816 8820 ft 282 kts 14°
2026-04-25 18:10 43.59455 -1.57653 9980 ft 274 kts 40°
2026-04-25 18:11 43.60861 -1.55817 10828 ft 285 kts 49°
2026-04-25 18:11 43.62224 -1.53768 11651 ft 293 kts 50°
2026-04-25 18:11 43.63590 -1.51704 12564 ft 298 kts 50°
2026-04-25 18:11 43.65002 -1.49589 13489 ft 302 kts 49°
2026-04-25 18:12 43.66446 -1.47450 14347 ft 307 kts 49°
2026-04-25 18:12 43.67916 -1.45268 15194 ft 313 kts 49°
2026-04-25 18:12 43.69412 -1.43042 16012 ft 319 kts 48°
2026-04-25 18:12 43.70935 -1.40774 16813 ft 325 kts 48°
2026-04-25 18:13 43.72481 -1.38469 17609 ft 330 kts 48°
2026-04-25 18:13 43.74048 -1.36131 18397 ft 334 kts 47°
2026-04-25 18:13 43.75635 -1.33760 19153 ft 338 kts 47°
2026-04-25 18:14 43.78874 -1.28915 20592 ft 347 kts 47°
2026-04-25 18:14 43.80610 -1.26561 21260 ft 352 kts 41°
2026-04-25 18:14 43.82443 -1.24344 21906 ft 357 kts 41°
2026-04-25 18:14 43.84335 -1.22085 22538 ft 361 kts 40°
2026-04-25 18:15 43.86247 -1.19799 23144 ft 366 kts 40°
2026-04-25 18:15 43.88180 -1.17478 23742 ft 370 kts 40°
2026-04-25 18:15 43.90138 -1.15129 24330 ft 374 kts 40°
2026-04-25 18:15 43.92115 -1.12752 24908 ft 378 kts 40°
2026-04-25 18:16 43.94108 -1.10351 25467 ft 382 kts 40°
2026-04-25 18:16 43.96120 -1.07919 25991 ft 385 kts 40°
2026-04-25 18:16 44.00193 -1.02975 27003 ft 392 kts 39°
2026-04-25 18:17 44.02261 -1.00475 27518 ft 394 kts 40°
2026-04-25 18:17 44.04326 -0.97967 28061 ft 395 kts 40°
2026-04-25 18:17 44.06399 -0.95456 28564 ft 396 kts 40°
2026-04-25 18:17 44.08485 -0.92936 29037 ft 397 kts 40°
2026-04-25 18:18 44.10592 -0.90386 29610 ft 396 kts 40°
2026-04-25 18:18 44.12665 -0.87872 30170 ft 394 kts 40°
2026-04-25 18:18 44.14726 -0.85367 30692 ft 393 kts 40°
2026-04-25 18:18 44.16750 -0.82902 31236 ft 391 kts 40°
2026-04-25 18:19 44.18789 -0.80415 31795 ft 388 kts 40°
2026-04-25 18:19 44.20810 -0.77946 32309 ft 386 kts 40°
2026-04-25 18:19 44.22823 -0.75487 32823 ft 383 kts 40°
2026-04-25 18:19 44.24819 -0.73046 33307 ft 381 kts 40°
2026-04-25 18:20 44.26818 -0.70633 33726 ft 379 kts 38°
2026-04-25 18:20 44.29016 -0.68634 34128 ft 377 kts 27°
2026-04-25 18:20 44.31388 -0.67081 34503 ft 377 kts 24°
2026-04-25 18:20 44.33789 -0.65606 34849 ft 376 kts 24°
2026-04-25 18:21 44.36189 -0.64137 35155 ft 377 kts 24°
2026-04-25 18:21 44.38584 -0.62656 35461 ft 377 kts 24°
2026-04-25 18:21 44.40979 -0.61164 35759 ft 377 kts 25°
2026-04-25 18:21 44.43372 -0.59663 36028 ft 377 kts 25°
2026-04-25 18:22 44.45749 -0.58169 36106 ft 373 kts 25°
2026-04-25 18:22 44.50439 -0.55217 36083 ft 372 kts 25°
2026-04-25 18:23 44.55156 -0.52247 36072 ft 371 kts 25°
2026-04-25 18:23 44.59868 -0.49275 36071 ft 371 kts 25°
2026-04-25 18:24 44.64576 -0.46296 36078 ft 371 kts 25°
2026-04-25 18:24 44.69281 -0.43317 36079 ft 371 kts 25°
2026-04-25 18:25 44.73991 -0.40328 36082 ft 371 kts 25°
2026-04-25 18:25 44.78655 -0.37362 36078 ft 370 kts 25°
2026-04-25 18:26 44.83344 -0.34377 36080 ft 370 kts 25°
2026-04-25 18:26 44.88030 -0.31376 36090 ft 370 kts 25°
2026-04-25 18:27 44.92732 -0.28376 36091 ft 376 kts 26°
2026-04-25 18:27 44.97593 -0.25264 36112 ft 391 kts 26°
2026-04-25 18:28 45.02639 -0.22025 36112 ft 403 kts 25°
2026-04-25 18:28 45.07754 -0.18739 36103 ft 404 kts 26°
2026-04-25 18:29 45.14582 -0.14339 36110 ft 403 kts 26°
2026-04-25 18:30 45.24750 -0.07765 36109 ft 403 kts 26°
2026-04-25 18:30 45.29847 -0.04458 36113 ft 403 kts 26°
2026-04-25 18:31 45.34939 -0.01134 36116 ft 403 kts 26°
2026-04-25 18:31 45.40033 0.02199 36117 ft 402 kts 27°
2026-04-25 18:32 45.45116 0.05508 36118 ft 401 kts 27°
2026-04-25 18:32 45.50184 0.08810 36132 ft 401 kts 27°
2026-04-25 18:33 45.55255 0.12133 36129 ft 401 kts 28°
2026-04-25 18:33 45.60321 0.15455 36131 ft 400 kts 28°
2026-04-25 18:34 45.65378 0.18778 36143 ft 400 kts 28°
2026-04-25 18:34 45.70397 0.22089 36143 ft 400 kts 28°
2026-04-25 18:35 45.75437 0.25451 36142 ft 400 kts 28°
2026-04-25 18:35 45.80480 0.28809 36138 ft 400 kts 28°
2026-04-25 18:36 45.85530 0.32161 36140 ft 400 kts 28°
2026-04-25 18:36 45.90592 0.35495 36143 ft 400 kts 28°
2026-04-25 18:37 45.95645 0.38834 36150 ft 400 kts 28°
2026-04-25 18:37 46.00689 0.42194 36152 ft 400 kts 28°
2026-04-25 18:38 46.05696 0.45538 36151 ft 399 kts 28°
2026-04-25 18:38 46.10730 0.48905 36151 ft 399 kts 28°
2026-04-25 18:39 46.15754 0.52283 36158 ft 397 kts 28°
2026-04-25 18:39 46.20712 0.55616 36155 ft 389 kts 28°
2026-04-25 18:40 46.25685 0.58985 36164 ft 398 kts 28°
2026-04-25 18:40 46.30670 0.62355 36161 ft 399 kts 28°
2026-04-25 18:41 46.35698 0.65753 36160 ft 398 kts 28°
2026-04-25 18:41 46.40724 0.69145 36166 ft 399 kts 28°
2026-04-25 18:42 46.44882 0.71967 36166 ft 393 kts 28°
2026-04-25 18:42 46.50640 0.75903 36172 ft 396 kts 28°
2026-04-25 18:43 46.55822 0.78765 36174 ft 404 kts 17°
2026-04-25 18:43 46.61322 0.80470 36178 ft 404 kts 16°
2026-04-25 18:44 46.64048 0.81307 36169 ft 393 kts 16°
2026-04-25 18:44 46.66675 0.82115 36075 ft 379 kts 16°
2026-04-25 18:44 46.69181 0.82896 35898 ft 368 kts 16°
2026-04-25 18:44 46.71670 0.83682 35416 ft 365 kts 17°
2026-04-25 18:45 46.74151 0.84476 34817 ft 365 kts 17°
2026-04-25 18:45 46.76630 0.85278 34239 ft 365 kts 18°
2026-04-25 18:45 46.79110 0.86077 33642 ft 365 kts 18°
2026-04-25 18:45 46.81588 0.86861 33021 ft 365 kts 18°
2026-04-25 18:46 46.84067 0.87649 32392 ft 365 kts 18°
2026-04-25 18:46 46.86552 0.88428 31730 ft 366 kts 18°
2026-04-25 18:46 46.89038 0.89210 31094 ft 366 kts 18°
2026-04-25 18:46 46.91517 0.89991 30540 ft 363 kts 18°
2026-04-25 18:47 46.93934 0.90757 30063 ft 358 kts 18°
2026-04-25 18:47 46.96353 0.91528 29560 ft 354 kts 18°
2026-04-25 18:47 46.98742 0.92293 29041 ft 350 kts 18°
2026-04-25 18:47 47.01115 0.93053 28489 ft 348 kts 18°
2026-04-25 18:48 47.03473 0.93808 27934 ft 346 kts 18°
2026-04-25 18:48 47.05823 0.94555 27385 ft 345 kts 18°
2026-04-25 18:48 47.08162 0.95300 26841 ft 342 kts 18°
2026-04-25 18:48 47.10487 0.96045 26293 ft 341 kts 18°
2026-04-25 18:49 47.12799 0.96784 25756 ft 339 kts 18°
2026-04-25 18:49 47.15132 0.97529 25212 ft 338 kts 18°
2026-04-25 18:49 47.17394 0.98248 24695 ft 336 kts 18°
2026-04-25 18:49 47.19684 0.98980 24307 ft 337 kts 18°
2026-04-25 18:50 47.21979 0.99716 24189 ft 338 kts 18°
2026-04-25 18:50 47.24276 1.00451 24184 ft 338 kts 18°
2026-04-25 18:50 47.26606 1.01199 24201 ft 337 kts 18°
2026-04-25 18:50 47.28898 1.01935 24208 ft 337 kts 18°
2026-04-25 18:51 47.31190 1.02673 24218 ft 337 kts 18°
2026-04-25 18:51 47.32710 1.03164 24221 ft 337 kts 18°
2026-04-25 18:51 47.35778 1.04153 24219 ft 337 kts 18°
2026-04-25 18:51 47.38072 1.04891 24221 ft 337 kts 18°
2026-04-25 18:52 47.40365 1.05629 24223 ft 337 kts 18°
2026-04-25 18:52 47.42651 1.06392 24213 ft 336 kts 20°
2026-04-25 18:52 47.44902 1.07439 24218 ft 334 kts 24°
2026-04-25 18:52 47.47033 1.08531 23956 ft 326 kts 24°
2026-04-25 18:53 47.49177 1.09644 23473 ft 328 kts 25°
2026-04-25 18:53 47.51330 1.10757 23249 ft 328 kts 24°
2026-04-25 18:53 47.53493 1.11860 23205 ft 329 kts 24°
2026-04-25 18:53 47.55657 1.12958 23206 ft 329 kts 24°
2026-04-25 18:54 47.59973 1.15151 23165 ft 323 kts 24°
2026-04-25 18:54 47.62089 1.16225 22706 ft 321 kts 24°
2026-04-25 18:54 47.64195 1.17297 22175 ft 320 kts 24°
2026-04-25 18:55 47.66299 1.18368 21676 ft 319 kts 24°
2026-04-25 18:55 47.68389 1.19431 21192 ft 317 kts 24°
2026-04-25 18:55 47.70435 1.20475 20728 ft 314 kts 24°
2026-04-25 18:55 47.72499 1.21531 20248 ft 312 kts 24°
2026-04-25 18:56 47.74549 1.22579 19776 ft 310 kts 24°
2026-04-25 18:56 47.76585 1.23618 19306 ft 309 kts 24°
2026-04-25 18:56 47.78607 1.24650 18847 ft 306 kts 24°
2026-04-25 18:56 47.80614 1.25676 18387 ft 304 kts 24°
2026-04-25 18:57 47.82639 1.26713 17912 ft 303 kts 24°
2026-04-25 18:57 47.84596 1.27715 17467 ft 301 kts 24°
2026-04-25 18:57 47.86568 1.28728 17008 ft 299 kts 24°
2026-04-25 18:57 47.87897 1.29411 16703 ft 298 kts 24°
2026-04-25 18:58 47.90479 1.30738 16108 ft 296 kts 24°
2026-04-25 18:58 47.94356 1.32733 15188 ft 293 kts 24°
2026-04-25 18:58 47.96282 1.33727 14744 ft 292 kts 24°
2026-04-25 18:59 48.00107 1.35702 13853 ft 290 kts 24°
2026-04-25 18:59 48.03901 1.37662 12920 ft 288 kts 23°
2026-04-25 19:00 48.07463 1.40200 12028 ft 281 kts 37°
2026-04-25 19:00 48.09080 1.41841 11596 ft 280 kts 38°
2026-04-25 19:01 48.12288 1.45110 10763 ft 278 kts 37°
2026-04-25 19:01 48.13884 1.46730 10377 ft 278 kts 37°
2026-04-25 19:01 48.15485 1.48351 10235 ft 277 kts 37°
2026-04-25 19:01 48.17063 1.49950 10219 ft 277 kts 37°
2026-04-25 19:02 48.20275 1.53207 10234 ft 277 kts 37°
2026-04-25 19:02 48.21872 1.54824 10237 ft 277 kts 37°
2026-04-25 19:02 48.23468 1.56446 10239 ft 277 kts 38°
2026-04-25 19:03 48.25416 1.58883 10240 ft 275 kts 46°
2026-04-25 19:03 48.27726 1.62211 10240 ft 275 kts 46°
2026-04-25 19:03 48.29087 1.64171 10061 ft 268 kts 46°
2026-04-25 19:04 48.31730 1.67967 9432 ft 260 kts 46°
2026-04-25 19:04 48.33033 1.69842 9064 ft 258 kts 46°
2026-04-25 19:05 48.35614 1.73547 8293 ft 255 kts 46°
2026-04-25 19:05 48.38167 1.77222 7515 ft 253 kts 46°
2026-04-25 19:05 48.39440 1.79053 7278 ft 253 kts 46°
2026-04-25 19:06 48.40709 1.80882 7229 ft 253 kts 46°
2026-04-25 19:06 48.43189 1.84459 6638 ft 248 kts 46°
2026-04-25 19:06 48.44427 1.86248 6341 ft 243 kts 46°
2026-04-25 19:07 48.46822 1.89708 5765 ft 236 kts 46°
2026-04-25 19:07 48.48030 1.91375 5411 ft 236 kts 38°
2026-04-25 19:08 48.51079 1.93240 4841 ft 233 kts 21°
2026-04-25 19:08 48.52593 1.93997 4700 ft 224 kts 21°
2026-04-25 19:09 48.56755 1.96063 4172 ft 202 kts 21°
2026-04-25 19:09 48.57207 1.96287 4107 ft 202 kts 21°
2026-04-25 19:09 48.60784 1.98070 4076 ft 202 kts 23°
2026-04-25 19:10 48.62001 1.99070 4076 ft 198 kts 44°
2026-04-25 19:10 48.62709 2.00763 4083 ft 196 kts 76°
2026-04-25 19:10 48.62801 2.02775 3892 ft 191 kts 90°
2026-04-25 19:10 48.62738 2.04747 3699 ft 181 kts 91°
2026-04-25 19:11 48.62665 2.06579 3528 ft 171 kts 91°
2026-04-25 19:11 48.62722 2.08373 3204 ft 173 kts 91°
2026-04-25 19:11 48.62457 2.10165 3075 ft 176 kts 105°
2026-04-25 19:11 48.62081 2.11921 3054 ft 175 kts 95°
2026-04-25 19:12 48.62248 2.13715 3073 ft 173 kts 83°
2026-04-25 19:12 48.61957 2.15469 3076 ft 179 kts 119°
2026-04-25 19:12 48.60966 2.16637 3080 ft 188 kts 155°
2026-04-25 19:12 48.59652 2.16696 3079 ft 196 kts 192°
2026-04-25 19:13 48.58506 2.15580 3090 ft 201 kts 226°
2026-04-25 19:13 48.57645 2.13924 3102 ft 201 kts 231°
2026-04-25 19:13 48.56801 2.12244 3095 ft 201 kts 232°
2026-04-25 19:13 48.55957 2.10565 3092 ft 201 kts 232°
2026-04-25 19:14 48.55125 2.08911 3090 ft 200 kts 232°
2026-04-25 19:14 48.54841 2.08347 3087 ft 200 kts 231°
2026-04-25 19:14 48.53439 2.05557 3083 ft 201 kts 233°
2026-04-25 19:14 48.52955 2.03612 3065 ft 200 kts 267°
2026-04-25 19:15 48.53274 2.01621 3076 ft 195 kts 304°
2026-04-25 19:15 48.54179 2.00143 3092 ft 191 kts 321°
2026-04-25 19:15 48.55163 1.98792 3097 ft 191 kts 322°
2026-04-25 19:15 48.56311 1.97915 3086 ft 184 kts 354°
2026-04-25 19:16 48.57527 1.98204 3082 ft 177 kts 27°
2026-04-25 19:16 48.58528 1.99234 3083 ft 172 kts 48°
2026-04-25 19:16 48.59183 2.00622 3075 ft 153 kts 58°
2026-04-25 19:16 48.59747 2.01926 3081 ft 147 kts 57°
2026-04-25 19:17 48.60295 2.03147 3101 ft 137 kts 57°
2026-04-25 19:17 48.61009 2.04093 3096 ft 140 kts 33°
2026-04-25 19:17 48.61816 2.04894 3086 ft 139 kts 34°
2026-04-25 19:17 48.62628 2.05647 3085 ft 138 kts 41°
2026-04-25 19:18 48.62977 2.06946 3080 ft 139 kts 85°
2026-04-25 19:18 48.62938 2.08396 3085 ft 138 kts 79°
2026-04-25 19:18 48.63300 2.09726 3090 ft 137 kts 62°
2026-04-25 19:18 48.63763 2.10985 3092 ft 137 kts 61°
2026-04-25 19:19 48.64309 2.12160 3086 ft 138 kts 54°
2026-04-25 19:19 48.64857 2.13342 3094 ft 137 kts 57°
2026-04-25 19:19 48.65398 2.14552 3087 ft 137 kts 56°
2026-04-25 19:19 48.65584 2.14957 2982 ft 135 kts 56°
2026-04-25 19:20 48.66311 2.16511 2309 ft 135 kts 55°
2026-04-25 19:20 48.66845 2.17688 2118 ft 136 kts 57°
2026-04-25 19:20 48.67348 2.18899 1948 ft 136 kts 60°
2026-04-25 19:20 48.67851 2.20205 1780 ft 137 kts 61°
2026-04-25 19:21 48.68319 2.21456 1589 ft 136 kts 59°
2026-04-25 19:21 48.69256 2.23948 1321 ft 136 kts 62°
2026-04-25 19:21 48.69692 2.25208 1231 ft 133 kts 62°
2026-04-25 19:22 48.70166 2.26498 1142 ft 134 kts 61°
2026-04-25 19:22 48.70608 2.27743 993 ft 131 kts 61°
2026-04-25 19:22 48.71461 2.30169 658 ft 132 kts 61°
2026-04-25 19:23 48.71934 2.31489 450 ft 134 kts 62°
2026-04-25 19:23 48.72764 2.33866 300 ft 102 kts 60°
2026-04-25 19:23 48.72974 2.34464 298 ft 27 kts 63°
2026-04-25 19:24 48.73016 2.34754 300 ft 29 kts 83°
2026-04-25 19:24 48.73032 2.34947 298 ft 14 kts 83°
2026-04-25 19:24 48.73036 2.34995 299 ft 4 kts 83°
2026-04-25 19:25 48.73039 2.35152 297 ft 11 kts 105°
2026-04-25 19:25 48.72997 2.35256 300 ft 13 kts 137°
2026-04-25 19:25 48.72916 2.35335 298 ft 14 kts 125°
2026-04-25 19:26 48.72882 2.35413 300 ft 7 kts 135°
2026-04-25 19:26 48.72826 2.35445 297 ft 10 kts 165°
2026-04-25 19:26 48.72748 2.35474 297 ft 12 kts 164°
2026-04-25 19:26 48.72656 2.35509 301 ft 15 kts 166°
2026-04-25 19:27 48.72549 2.35559 298 ft 17 kts 160°
2026-04-25 19:27 48.72514 2.35575 298 ft 11 kts 161°
2026-04-25 19:27 48.72477 2.35763 301 ft 15 kts 81°
2026-04-25 19:27 48.72467 2.35933 297 ft 8 kts 91°
2026-04-25 19:28 48.72470 2.36022 297 ft 10 kts 79°
2026-04-25 19:28 48.72489 2.36137 300 ft 13 kts 72°
2026-04-25 19:28 48.72514 2.36278 300 ft 15 kts 75°
2026-04-25 19:28 48.72544 2.36446 298 ft 17 kts 73°
2026-04-25 19:29 48.72576 2.36611 297 ft 0 kts 67°
2026-04-25 19:29 48.72579 2.36624 298 ft 3 kts 63°
2026-04-25 19:29 48.72605 2.36639 298 ft 6 kts 359°
2026-04-25 19:29 48.72654 2.36635 299 ft 9 kts 19°
2026-04-25 19:30 48.72676 2.36650 297 ft 4 kts 21°
2026-04-25 19:30 48.72698 2.36664 297 ft 0 kts 21°